Home   Weather   Caruaru   Past weeks

Flag for Brazil Past Weather in Caruaru, Pernambuco, Brazil — Yesterday and Last 2 Weeks

Now
86 °F

Scattered showers. Partly sunny.


Feels Like: 97 °F
Forecast: 71 / 82 °F
Wind: 10 mph from Southeast

Location: Recife Aeroporto

Current Time: Apr 28, 2017 at 10:53:46 am

Latest Report: Apr 28, 2017 at 10:00 am


Visibility: N/A

Pressure: N/A

Humidity: 75%

Dew Point: 77 °F

Location of CaruaruLocation

Past Weather in Caruaru — Graph

°F

Caruaru Temperature Yesterday

Maximum temperature yesterday: 86 °F (at 11:00 am)
Minimum temperature yesterday: 77 °F (at 2:00 am)
Average temperature yesterday: 82 °F

High & Low Weather Summary for the Past Weeks

 TemperatureHumidityPressure
High88 °F (Apr 19, 11:00 am)100% (Apr 22, 5:00 am)29.98 "Hg (Apr 22, 5:00 am)
Low75 °F (Apr 20, 2:00 am)62% (Apr 20, 10:00 am)29.80 "Hg (Apr 20, 2:00 pm)
Average82 °F80%29.89 "Hg
* Reported Apr 18 6:00 pm — Apr 28 9:00 am, Caruaru, Weather by CustomWeather, © 2017

Note: Actual official high and low records may vary slightly from our data, if they occured in-between our weather recording intervals... More about our weather records

Advertising

Caruaru Weather History for the Previous 24 Hours

Scroll right to see more
 ConditionsComfort  
Time TempWeatherWind HumidityBarometerVisibility
9:00 am
Fri, Apr 28
86 °FScattered clouds.9 mph75%29.95 "HgN/A
8:00 am84 °FScattered clouds.8 mph79%29.95 "HgN/A
7:00 am81 °FScattered clouds.6 mph89%29.92 "HgN/A
6:00 am81 °FScattered clouds.3 mph89%29.89 "HgN/A
5:00 am81 °FPassing clouds.5 mph84%29.89 "HgN/A
4:00 am82 °FPassing clouds.6 mph79%29.86 "HgN/A
3:00 am82 °FPassing clouds.5 mph79%29.86 "HgN/A
2:00 am82 °FPassing clouds.6 mph79%29.89 "HgN/A
1:00 am84 °FPassing clouds.7 mph79%29.89 "HgN/A
12:00 am82 °FPassing clouds.7 mph79%29.92 "HgN/A
11:00 pm
Thu, Apr 27
82 °FPassing clouds.6 mph84%29.92 "HgN/A
10:00 pm84 °FPassing clouds.6 mph79%29.92 "HgN/A
9:00 pm82 °FPassing clouds.7 mph79%29.92 "HgN/A
8:00 pm82 °FPassing clouds.7 mph79%29.92 "HgN/A
7:00 pm82 °FPassing clouds.9 mph84%29.92 "HgN/A
6:00 pm82 °FScattered showers. Passing clouds.9 mph84%29.89 "HgN/A
5:00 pm82 °FPartly sunny.10 mph84%29.89 "HgN/A
4:00 pm86 °FPartly sunny.12 mph75%29.86 "HgN/A
3:00 pm86 °FScattered clouds.10 mph75%29.86 "HgN/A
2:00 pm86 °FPassing clouds.9 mph70%29.86 "HgN/A
1:00 pm86 °FPassing clouds.10 mph70%29.89 "HgN/A
12:00 pm86 °FPassing clouds.9 mph70%29.92 "HgN/A
11:00 am86 °FScattered clouds.10 mph75%29.95 "HgN/A
10:00 am84 °FBroken clouds.9 mph84%29.98 "HgN/A
Weather by CustomWeather, © 2017

See weather overviewHow to use our weather pages